Regional Weather Roundup
Issued by NWS

Home | Current Version | Previous Version | Text Only | Print | Product List | Glossary On
Versions: 1 2 3 4 5 6 7 8 9 10 11 12 13 14 15 16 17 18 19 20 21 22 23 24 25 26 27 28 29 30 31 32 33 34 35 36 37 38 39 40 41 42 43 44 45 46 47 48 49 50
000
ASUS42 KFFC 190210
RWRGA
WEATHER ROUNDUP FOR GEORGIA
NATIONAL WEATHER SERVICE PEACHTREE CITY GA
900 PM EST WED JAN 18 2017

NOTE: "FAIR" INDICATES FEW OR NO CLOUDS BELOW 12,000 FEET WITH NO
SIGNIFICANT WEATHER AND/OR OBSTRUCTIONS TO VISIBILITY.

* = USE WITH CAUTION. THE STATIONS MARKED WITH AN ASTERISK MAY NOT
REPORT WEATHER SUCH AS PRECIPITATION, FOG, OR THUNDER AND ARE NOT
QUALITY CONTROLLED BY NWS.

THE REMARK "TC" DENOTES TEMPERATURE READING IN DEGREES CELSIUS.

GAZ001>058-190300-
NORTH GEORGIA

CITY           SKY/WX    TMP DP  RH WIND       PRES   REMARKS
ATLANTA        MOCLDY    61  51  70 W6        30.09F
ATHENS         CLEAR     63  48  58 W6        30.08R
CHAMBLEE       PTCLDY    61  49  64 W7        30.10S
PEACHTREE CITY CLEAR     55  54  96 CALM      30.11F
ROME           PTCLDY    56  50  80 CALM      30.10S
WEST ATLANTA   PTCLDY    60  49  66 CALM      30.10S
GAINESVILLE    PTCLDY    60  42  51 W8        30.10F
CARTERSVILLE   PTCLDY    55  50  83 CALM      30.11S


CITY           SKY/WX    TMP DP  RH WIND       PRES   REMARKS
DALTON*        PTCLDY    52  46  82 CALM      30.11S
LAWRENCEVILLE* CLEAR     63  48  59 W6        30.10S
MARIETTA       PTCLDY    58  50  75 W7        30.10S
KENNESAW*      CLEAR     61  50  67 NW6       30.12R
CANTON*        PTCLDY    57  37  47 CALM      30.12S
$$

GAZ059>098-102>109-190300-
CENTRAL GEORGIA

CITY           SKY/WX    TMP DP  RH WIND       PRES   REMARKS
AUGUSTA-BUSH   CLEAR     66  59  78 W5        30.04R
AUGUSTA-DANIEL CLEAR     69  50  50 VRB6      30.05S
COLUMBUS       CLEAR     63  58  83 CALM      30.10S
MACON          CLEAR     60  57  89 W3        30.10R
ROBINS AFB     CLEAR     60  57  91 CALM      30.09S


CITY           SKY/WX    TMP DP  RH WIND       PRES   REMARKS
LAGRANGE*      CLEAR     58  58 100 CALM      30.11F
SYLVANIA*      CLEAR    N/A N/A N/A W5        30.06S
MILLEDGEVILLE* CLEAR     64  61  88 CALM      30.08S
$$

GAZ099>101-110>166-190300-
SOUTH GEORGIA

CITY           SKY/WX    TMP DP  RH WIND       PRES   REMARKS
SAVANNAH       CLEAR     69  57  65 W14       30.05F
VALDOSTA       CLEAR     56  56 100 CALM      30.11S
ALMA           CLEAR     63  60  90 SW3       30.09S
ST SIMONS      CLEAR     65  59  81 W5        30.09R
FT STEWART     CLEAR     64  58  80 SW3       30.06R
ALBANY         CLEAR     61  59  93 CALM      30.12S
HUNTER AFB     CLEAR     68  60  77 SW12      30.03S
MOODY AFB      CLEAR     60  58  93 CALM      30.10S
BRUNSWICK      CLEAR     66  61  82 W6        30.09F


CITY           SKY/WX    TMP DP  RH WIND       PRES   REMARKS
BAINBRIDGE*    PTCLDY    59  57  94 CALM      30.11F
MOULTRIE*      CLEAR     61  59  94 CALM      30.12F
VIDALIA*       CLEAR     63  61  94 W3        30.09S
WAYCROSS*      CLEAR     67  66  96 SW3       30.10S
DOUGLAS*       CLEAR     61  59  94 W3        30.11F
$$



USA.gov is the U.S. government's official web portal to all federal, state and local government web resources and services.